| time (UTC) | temp F | wind direction | speed MPH | gust MPH | rain 1hr in | rain 24hr in | rain mn in | humidity % | barometer mb |
| 20260504174215 | 75 | 195 | 5.0 | 12.0 | 0.00 | 0.00 | 0.00 | 99 | 1008.9 |
| 20260504173515 | 75 | 215 | 4.0 | 8.0 | 0.00 | 0.00 | 0.00 | 99 | 1009.0 |
| 20260504172815 | 74 | 96 | 0.0 | 4.0 | 0.00 | 0.00 | 0.00 | 99 | 1009.1 |
| 20260504172034 | 76 | 323 | 2.0 | 3.0 | 0.00 | 0.00 | 0.00 | 99 | 1009.1 |
| 20260504171333 | 76 | 147 | 1.0 | 6.0 | 0.00 | 0.00 | 0.00 | 99 | 1009.1 |
| 20260504170633 | 75 | 130 | 3.0 | 6.0 | 0.00 | 0.00 | 0.00 | 99 | 1009.1 |
| 20260504160333 | 67 | 13 | 5.0 | 9.0 | 0.00 | 0.00 | 0.00 | 97 | 1009.1 |
| 20260504150733 | 62 | 25 | 0.0 | 4.0 | 0.00 | 0.00 | 0.00 | 96 | 1009.3 |
| 20260504150115 | 62 | 26 | 1.0 | 3.0 | 0.00 | 0.00 | 0.00 | 96 | 1009.2 |
| 20260504141133 | 53 | 0.0 | 0.0 | 0.00 | 0.00 | 0.00 | 95 | 1009.0 | |
| 20260504140515 | 53 | 0.0 | 0.0 | 0.00 | 0.00 | 0.00 | 95 | 1008.9 | |
| 20260504130133 | 50 | 0.0 | 0.0 | 0.00 | 0.00 | 0.00 | 94 | 1008.5 | |
| 20260504110233 | 52 | 0.0 | 0.0 | 0.00 | 0.00 | 0.00 | 94 | 1008.6 | |
| 20260504081515 | 55 | 0.0 | 0.0 | 0.00 | 0.00 | 0.00 | 95 | 1008.1 | |
| 20260504080733 | 56 | 0.0 | 1.0 | 0.00 | 0.00 | 0.00 | 95 | 1008.1 | |
| 20260504080115 | 56 | 0.0 | 1.0 | 0.00 | 0.00 | 0.00 | 95 | 1008.1 | |
| 20260504060133 | 59 | 160 | 0.0 | 2.0 | 0.00 | 0.00 | 0.00 | 96 | 1008.0 |
| 20260504050532 | 58 | 194 | 1.0 | 4.0 | 0.00 | 0.00 | 0.00 | 96 | 1008.1 |
| 20260504045833 | 59 | 225 | 2.0 | 4.0 | 0.00 | 0.00 | 0.00 | 96 | 1008.2 |
| 20260504045132 | 59 | 213 | 2.0 | 4.0 | 0.00 | 0.00 | 0.00 | 96 | 1008.1 |
| 20260504044433 | 59 | 231 | 3.0 | 4.0 | 0.00 | 0.00 | 0.00 | 96 | 1008.1 |
| 20260504043732 | 59 | 217 | 1.0 | 4.0 | 0.00 | 0.00 | 0.00 | 96 | 1008.2 |
| 20260504043032 | 60 | 226 | 1.0 | 4.0 | 0.00 | 0.00 | 0.00 | 96 | 1008.2 |
| 20260504042332 | 60 | 227 | 1.0 | 5.0 | 0.00 | 0.00 | 0.00 | 96 | 1008.1 |
| 20260504041632 | 60 | 236 | 2.0 | 5.0 | 0.00 | 0.00 | 0.00 | 96 | 1008.1 |
| 20260504040933 | 60 | 233 | 2.0 | 6.0 | 0.00 | 0.00 | 0.00 | 96 | 1008.1 |
| 20260504040315 | 60 | 235 | 4.0 | 6.0 | 0.00 | 0.00 | 0.00 | 96 | 1008.1 |
| 20260504035615 | 60 | 230 | 2.0 | 4.0 | 0.00 | 0.00 | 0.00 | 96 | 1008.1 |
| 20260504034832 | 60 | 221 | 2.0 | 3.0 | 0.00 | 0.00 | 0.00 | 96 | 1008.1 |
| 20260504034132 | 61 | 219 | 1.0 | 4.0 | 0.00 | 0.00 | 0.00 | 96 | 1008.1 |
| 20260504033433 | 61 | 218 | 2.0 | 4.0 | 0.00 | 0.00 | 0.00 | 96 | 1008.1 |
| 20260504032733 | 62 | 208 | 1.0 | 2.0 | 0.00 | 0.00 | 0.00 | 96 | 1008.1 |
| 20260504032032 | 62 | 165 | 0.0 | 3.0 | 0.00 | 0.00 | 0.00 | 97 | 1008.1 |
| 20260504031332 | 63 | 209 | 1.0 | 3.0 | 0.00 | 0.00 | 0.00 | 97 | 1008.1 |
| 20260504030715 | 63 | 215 | 2.0 | 3.0 | 0.00 | 0.00 | 0.00 | 97 | 1008.1 |
| 20260504025932 | 64 | 187 | 0.0 | 4.0 | 0.00 | 0.00 | 0.00 | 97 | 1008.1 |
| 20260504025232 | 65 | 174 | 1.0 | 4.0 | 0.00 | 0.00 | 0.00 | 97 | 1008.0 |
| 20260504024532 | 65 | 203 | 3.0 | 8.0 | 0.00 | 0.00 | 0.00 | 97 | 1008.0 |
| 20260504023832 | 65 | 227 | 5.0 | 8.0 | 0.00 | 0.00 | 0.00 | 97 | 1008.0 |
| 20260504023132 | 65 | 225 | 5.0 | 7.0 | 0.00 | 0.00 | 0.00 | 97 | 1008.1 |
| 20260504022432 | 66 | 208 | 3.0 | 5.0 | 0.00 | 0.00 | 0.00 | 97 | 1008.1 |
| 20260504021732 | 66 | 221 | 2.0 | 6.0 | 0.00 | 0.00 | 0.00 | 97 | 1008.2 |
| 20260504021032 | 67 | 182 | 2.0 | 7.0 | 0.00 | 0.00 | 0.00 | 97 | 1008.3 |
| 20260504020332 | 68 | 203 | 2.0 | 9.0 | 0.00 | 0.00 | 0.00 | 98 | 1008.4 |
| 20260504015632 | 70 | 201 | 3.0 | 7.0 | 0.00 | 0.00 | 0.00 | 98 | 1008.4 |
| 20260504014933 | 72 | 208 | 5.0 | 8.0 | 0.00 | 0.00 | 0.00 | 98 | 1008.4 |
| 20260504014315 | 73 | 187 | 3.0 | 8.0 | 0.00 | 0.00 | 0.00 | 99 | 1008.4 |
| 20260504013532 | 75 | 175 | 2.0 | 7.0 | 0.00 | 0.00 | 0.00 | 99 | 1008.4 |
| 20260504012833 | 77 | 213 | 4.0 | 7.0 | 0.00 | 0.00 | 0.00 | 99 | 1008.5 |
| 20260504012132 | 77 | 237 | 3.0 | 7.0 | 0.00 | 0.00 | 0.00 | 99 | 1008.6 |
| 20260504011515 | 77 | 219 | 2.0 | 6.0 | 0.00 | 0.00 | 0.00 | 99 | 1008.7 |
| 20260504010732 | 78 | 277 | 1.0 | 10.0 | 0.00 | 0.00 | 0.00 | 99 | 1008.8 |
| 20260504010033 | 78 | 0.0 | 7.0 | 0.00 | 0.00 | 0.00 | 99 | 1008.9 | |
| 20260504005332 | 79 | 252 | 2.0 | 13.0 | 0.00 | 0.00 | 0.00 | 1009.0 | |
| 20260504004632 | 78 | 321 | 0.0 | 8.0 | 0.00 | 0.00 | 0.00 | 99 | 1009.0 |
| 20260504003933 | 79 | 348 | 4.0 | 10.0 | 0.00 | 0.00 | 0.00 | 99 | 1009.1 |
| 20260504003232 | 80 | 297 | 1.0 | 9.0 | 0.00 | 0.00 | 0.00 | 1009.2 | |
| 20260504002532 | 79 | 243 | 2.0 | 7.0 | 0.00 | 0.00 | 0.00 | 1009.3 | |
| 20260504001832 | 78 | 255 | 2.0 | 7.0 | 0.00 | 0.00 | 0.00 | 99 | 1009.3 |
| 20260504001215 | 79 | 298 | 2.0 | 11.0 | 0.00 | 0.00 | 0.00 | 1009.3 | |
| 20260504000432 | 79 | 291 | 1.0 | 9.0 | 0.00 | 0.00 | 0.00 | 1009.4 | |
| 20260503235732 | 80 | 310 | 2.0 | 9.0 | 0.00 | 0.00 | 0.00 | 1009.4 | |
| 20260503235032 | 80 | 275 | 3.0 | 10.0 | 0.00 | 0.00 | 0.00 | 1009.4 | |
| 20260503234332 | 80 | 311 | 1.0 | 5.0 | 0.00 | 0.00 | 0.00 | 1009.5 | |
| 20260503233632 | 81 | 269 | 2.0 | 8.0 | 0.00 | 0.00 | 0.00 | 1009.7 | |
| 20260503232932 | 80 | 259 | 3.0 | 7.0 | 0.00 | 0.00 | 0.00 | 1009.7 | |
| 20260503232233 | 79 | 275 | 2.0 | 11.0 | 0.00 | 0.00 | 0.00 | 1009.8 | |
| 20260503231615 | 79 | 245 | 7.0 | 11.0 | 0.00 | 0.00 | 0.00 | 99 | 1009.9 |
| 20260503230832 | 79 | 304 | 2.0 | 7.0 | 0.00 | 0.00 | 0.00 | 1010.0 | |
| 20260503230132 | 78 | 298 | 2.0 | 14.0 | 0.00 | 0.00 | 0.00 | 99 | 1010.1 |
| 20260503225515 | 78 | 348 | 6.0 | 11.0 | 0.00 | 0.00 | 0.00 | 99 | 1010.1 |
| 20260503224732 | 78 | 297 | 1.0 | 8.0 | 0.00 | 0.00 | 0.00 | 99 | 1010.2 |
| 20260503224032 | 77 | 334 | 4.0 | 9.0 | 0.00 | 0.00 | 0.00 | 99 | 1010.3 |
| 20260503223332 | 77 | 293 | 2.0 | 10.0 | 0.00 | 0.00 | 0.00 | 99 | 1010.4 |
| 20260503222632 | 77 | 345 | 7.0 | 11.0 | 0.00 | 0.00 | 0.00 | 99 | 1010.5 |
| 20260503221932 | 78 | 319 | 3.0 | 14.0 | 0.00 | 0.00 | 0.00 | 99 | 1010.6 |
| 20260503221233 | 78 | 327 | 5.0 | 9.0 | 0.00 | 0.00 | 0.00 | 99 | 1010.7 |
| 20260503220532 | 78 | 311 | 3.0 | 6.0 | 0.00 | 0.00 | 0.00 | 99 | 1010.7 |
| 20260503215832 | 78 | 298 | 2.0 | 9.0 | 0.00 | 0.00 | 0.00 | 99 | 1010.8 |
| 20260503215132 | 78 | 260 | 3.0 | 9.0 | 0.00 | 0.00 | 0.00 | 99 | 1010.9 |
| 20260503214433 | 78 | 317 | 2.0 | 14.0 | 0.00 | 0.00 | 0.00 | 99 | 1011.0 |
| 20260503213732 | 79 | 273 | 2.0 | 10.0 | 0.00 | 0.00 | 0.00 | 99 | 1011.1 |
| 20260503213033 | 79 | 342 | 4.0 | 12.0 | 0.00 | 0.00 | 0.00 | 1011.2 | |
| 20260503212332 | 78 | 260 | 2.0 | 11.0 | 0.00 | 0.00 | 0.00 | 99 | 1011.1 |
| 20260503211633 | 78 | 253 | 4.0 | 11.0 | 0.00 | 0.00 | 0.00 | 99 | 1011.2 |
| 20260503210933 | 79 | 334 | 3.0 | 6.0 | 0.00 | 0.00 | 0.00 | 99 | 1011.2 |
| 20260503210232 | 78 | 305 | 2.0 | 6.0 | 0.00 | 0.00 | 0.00 | 99 | 1011.4 |
| 20260503205532 | 78 | 248 | 2.0 | 7.0 | 0.00 | 0.00 | 0.00 | 99 | 1011.5 |
| 20260503204832 | 78 | 313 | 3.0 | 7.0 | 0.00 | 0.00 | 0.00 | 99 | 1011.6 |
| 20260503204132 | 76 | 312 | 2.0 | 10.0 | 0.00 | 0.00 | 0.00 | 99 | 1011.7 |
| 20260503203433 | 76 | 12 | 2.0 | 8.0 | 0.00 | 0.00 | 0.00 | 99 | 1011.7 |
| 20260503202733 | 74 | 309 | 2.0 | 5.0 | 0.00 | 0.00 | 0.00 | 99 | 1011.9 |
| 20260503202032 | 74 | 289 | 1.0 | 5.0 | 0.00 | 0.00 | 0.00 | 99 | 1012.0 |
| 20260503201332 | 74 | 294 | 2.0 | 14.0 | 0.00 | 0.00 | 0.00 | 99 | 1012.0 |
| 20260503200632 | 74 | 300 | 2.0 | 5.0 | 0.00 | 0.00 | 0.00 | 99 | 1012.1 |
| 20260503195933 | 74 | 295 | 3.0 | 8.0 | 0.00 | 0.00 | 0.00 | 99 | 1012.2 |
| 20260503195232 | 74 | 314 | 4.0 | 14.0 | 0.00 | 0.00 | 0.00 | 99 | 1012.3 |
| 20260503194532 | 73 | 298 | 2.0 | 9.0 | 0.00 | 0.00 | 0.00 | 99 | 1012.3 |
| 20260503193832 | 74 | 336 | 6.0 | 11.0 | 0.00 | 0.00 | 0.00 | 99 | 1012.3 |
| 20260503193132 | 75 | 296 | 4.0 | 17.0 | 0.00 | 0.00 | 0.00 | 99 | 1012.3 |
| 20260503192432 | 75 | 290 | 2.0 | 17.0 | 0.00 | 0.00 | 0.00 | 99 | 1012.3 |
| 20260503191733 | 75 | 275 | 5.0 | 18.0 | 0.00 | 0.00 | 0.00 | 99 | 1012.2 |
| 20260503191115 | 76 | 244 | 10.0 | 18.0 | 0.00 | 0.00 | 0.00 | 99 | 1012.3 |
| 20260503190332 | 77 | 330 | 4.0 | 14.0 | 0.00 | 0.00 | 0.00 | 99 | 1012.3 |
| 20260503185632 | 77 | 228 | 9.0 | 14.0 | 0.00 | 0.00 | 0.00 | 99 | 1012.3 |
| 20260503184932 | 75 | 227 | 7.0 | 14.0 | 0.00 | 0.00 | 0.00 | 99 | 1012.5 |
| 20260503184233 | 75 | 226 | 6.0 | 12.0 | 0.00 | 0.00 | 0.00 | 99 | 1012.6 |
| 20260503183532 | 75 | 226 | 8.0 | 11.0 | 0.00 | 0.00 | 0.00 | 99 | 1012.7 |
| 20260503182832 | 77 | 229 | 6.0 | 11.0 | 0.00 | 0.00 | 0.00 | 99 | 1012.8 |
| 20260503182133 | 78 | 129 | 5.0 | 8.0 | 0.00 | 0.00 | 0.00 | 99 | 1012.8 |
| 20260503181432 | 76 | 145 | 3.0 | 7.0 | 0.00 | 0.00 | 0.00 | 99 | 1012.8 |
| 20260503180733 | 74 | 114 | 3.0 | 6.0 | 0.00 | 0.00 | 0.00 | 99 | 1012.8 |
| 20260503180114 | 74 | 44 | 1.0 | 6.0 | 0.00 | 0.00 | 0.00 | 99 | 1012.9 |
| 20260503175332 | 76 | 272 | 2.0 | 9.0 | 0.00 | 0.00 | 0.00 | 99 | 1013.0 |
| 20260503174715 | 76 | 140 | 4.0 | 9.0 | 0.00 | 0.00 | 0.00 | 99 | 1013.1 |